"Pseudo-MPEC" for iM20251

Created 2025 Nov 9 8:35:10 UT using Find_Orb

Click here for an explanation of pseudo-MPECs

 
 Astrometry: 
     iM20251*-C2025 10 30.48682 01 57 26.22 +02 51 13.8    ~B4Io 19.8 GVNEOCPE10
     iM20251 -C2025 10 30.48828 01 57 26.07 +02 51 13.3    ~B4Io 19.8 GVNEOCPE10
     iM20251 -C2025 10 30.48974 01 57 25.93 +02 51 13.1    ~B4Io 19.8 GVNEOCPE10
     iM20251 -C2025 10 30.49120 01 57 25.77 +02 51 13.1    ~B4Io 20.1 GVNEOCPE10
     iM20251 -C2025 10 30.49266 01 57 25.59 +02 51 12.6    ~B4Io 19.9 GVNEOCPE10
     iM20251 -C2025 10 30.49412 01 57 25.40 +02 51 12.3    ~B4Io 19.9 GVNEOCPE10
     iM20251 -C2025 10 30.49558 01 57 25.34 +02 51 12.0    ~B4Io 19.9 GVNEOCPE10
     iM20251 -C2025 10 30.49704 01 57 25.18 +02 51 11.8    ~B4Io 19.5 GVNEOCPE10
     iM20251 -C2025 10 30.49850 01 57 25.05 +02 51 11.7    ~B4Io 19.6 GVNEOCPE10
     iM20251 -C2025 10 30.49996 01 57 24.83 +02 51 11.3    ~B4Io 19.7 GVNEOCPE10
     iM20251 -C2025 10 30.50142 01 57 24.75 +02 51 11.1    ~B4Io 20.0 GVNEOCPE10
     iM20251 -C2025 10 30.50288 01 57 24.58 +02 51 10.8    ~B4Io 19.7 GVNEOCPE10
     iM20251 KC2025 11 05.06257 01 49 06.80 +02 38 57.3    ~B53Z 19.6 GXNEOCPW62
     iM20251 KC2025 11 05.07444 01 49 05.74 +02 38 57.0    ~B53Z 19.7 GXNEOCPW62

Station data:
(E10) Siding Spring-Faulkes Telescope South  (S31.272803 E149.070850)
   Australia/NSW.  Observers P. Breitenstein, L. Broering. Measurer P.
   Breitenstein. 2.0-m Ritchey-Chrétien + CCD.
(W62) Comet Hunter Observatory2, New Ringgold  (N40.745185 W75.862390)
   US/Pennsylvania.  Observer J. Maikner. 0.30-m f/3.8 Riccardi-Honders + CCD.

Orbital elements:  iM20251
   Perihelion 2026 May 12.759896 +/- 188 TT = 18:14:15.0 (JD 2461173.259896)
Epoch 2025 Nov  5.0 TT = JDT 2460984.5   Earth MOID: 0.3548   Ma: 0.0117
M 274.773814828 +/- 110             (J2000 ecliptic)             AutoNEOCP
n   0.451505785 +/- 0.11            Peri.   76.741473 +/- 54
a   1.682779331 +/- 0.272           Node    68.290866 +/- 19
e   0.21604046 +/- 0.178            Incl.    6.481765 +/- 2.5
P   2.183/797.317d         H 18.92  G  0.15   U 11.3  SR
q 1.319230910 +/- 0.19    Q 2.046327752 +/- 0.649
From 14 observations 2025 Oct. 30-Nov. 5; mean residual 0".47
Residuals in arcseconds: 
251030 E10  1.0+  .24+    251030 E10  .93-  .06-    251030 E10  .31-  .06-    
251030 E10  .83+  .02-    251030 E10  .25+  .12-    251030 E10  .78-  .12-    
251030 E10  .80+  .02+    251030 E10  .08-  .08-    251105 W62  .11-  .38-    
251030 E10  .48+  .26+    251030 E10  .04+  .06+    251105 W62  .11+  .38+    
251030 E10  .15-  .00     251030 E10  1.2-  .10-    

Ephemerides (geocentric):
Date (UTC) HH   RA             Dec           delta  r     elong  mag " sig PA
---- --------  ------------   ------------  ------ ------ -----  --- --------
2025 11 09 09  01 43 00.147   +02 34 50.18  .76286 1.7181 156.8 20.3  364  94
2025 11 09 10  01 42 56.733   +02 34 49.12  .76291 1.7180 156.7 20.3  368  94
2025 11 09 11  01 42 53.322   +02 34 48.10  .76296 1.7178 156.7 20.3  373  94
2025 11 09 12  01 42 49.913   +02 34 47.09  .76301 1.7177 156.6 20.3  378  94
2025 11 09 13  01 42 46.508   +02 34 46.12  .76306 1.7176 156.6 20.3  383  94
2025 11 09 14  01 42 43.105   +02 34 45.18  .76311 1.7175 156.5 20.3  388  94
2025 11 09 15  01 42 39.704   +02 34 44.26  .76316 1.7174 156.5 20.3  393  94
2025 11 09 16  01 42 36.307   +02 34 43.37  .76321 1.7173 156.4 20.3  398  94
2025 11 09 17  01 42 32.912   +02 34 42.51  .76326 1.7171 156.4 20.3  403  94
2025 11 09 18  01 42 29.520   +02 34 41.67  .76331 1.7170 156.3 20.3  408  94
2025 11 09 19  01 42 26.131   +02 34 40.87  .76336 1.7169 156.3 20.3  413  94
2025 11 09 20  01 42 22.745   +02 34 40.09  .76341 1.7168 156.2 20.3  418  94
2025 11 09 21  01 42 19.362   +02 34 39.34  .76346 1.7167 156.2 20.3  423  94
2025 11 09 22  01 42 15.981   +02 34 38.62  .76352 1.7166 156.1 20.3  428  94
2025 11 09 23  01 42 12.603   +02 34 37.92  .76357 1.7164 156.1 20.3  433  94
2025 11 10 00  01 42 09.228   +02 34 37.25  .76362 1.7163 156.0 20.3  438  94
2025 11 10 01  01 42 05.856   +02 34 36.62  .76368 1.7162 156.0 20.3  443  94
2025 11 10 02  01 42 02.487   +02 34 36.01  .76373 1.7161 155.9 20.3  448  94
2025 11 10 03  01 41 59.121   +02 34 35.42  .76378 1.7160 155.9 20.3  454  94
2025 11 10 04  01 41 55.757   +02 34 34.87  .76384 1.7159 155.8 20.3  459  94
2025 11 10 05  01 41 52.396   +02 34 34.34  .76389 1.7158 155.8 20.3  464  94
2025 11 10 06  01 41 49.039   +02 34 33.84  .76395 1.7156 155.7 20.3  469  94
2025 11 10 07  01 41 45.684   +02 34 33.37  .76400 1.7155 155.7 20.3  475  94
2025 11 10 08  01 41 42.332   +02 34 32.93  .76406 1.7154 155.6 20.3  480  94
2025 11 10 09  01 41 38.983   +02 34 32.52  .76412 1.7153 155.5 20.3  485  94
2025 11 10 10  01 41 35.637   +02 34 32.13  .76417 1.7152 155.5 20.3  491  94
2025 11 10 11  01 41 32.294   +02 34 31.78  .76423 1.7151 155.4 20.3  496  94
2025 11 10 12  01 41 28.954   +02 34 31.45  .76429 1.7149 155.4 20.3  501  94
2025 11 10 13  01 41 25.617   +02 34 31.15  .76434 1.7148 155.3 20.3  507  94
2025 11 10 14  01 41 22.282   +02 34 30.87  .76440 1.7147 155.3 20.3  512  94
2025 11 10 15  01 41 18.951   +02 34 30.63  .76446 1.7146 155.2 20.3  518  94
2025 11 10 16  01 41 15.623   +02 34 30.41  .76452 1.7145 155.2 20.3  523  94
2025 11 10 17  01 41 12.298   +02 34 30.23  .76458 1.7144 155.1 20.3  529  94
2025 11 10 18  01 41 08.976   +02 34 30.07  .76464 1.7142 155.1 20.3  534  94
2025 11 10 19  01 41 05.656   +02 34 29.94  .76470 1.7141 155.0 20.3  540  94
2025 11 10 20  01 41 02.340   +02 34 29.83  .76476 1.7140 155.0 20.3  545  94
2025 11 10 21  01 40 59.027   +02 34 29.76  .76482 1.7139 154.9 20.3  551  94
2025 11 10 22  01 40 55.717   +02 34 29.71  .76488 1.7138 154.9 20.3  557  94
2025 11 10 23  01 40 52.410   +02 34 29.70  .76494 1.7136 154.8 20.3  562  94
2025 11 11 00  01 40 49.106   +02 34 29.71  .76500 1.7135 154.8 20.3  568  94
2025 11 11 01  01 40 45.805   +02 34 29.75  .76506 1.7134 154.7 20.3  573  94
2025 11 11 02  01 40 42.507   +02 34 29.82  .76512 1.7133 154.7 20.3  579  94
2025 11 11 03  01 40 39.212   +02 34 29.91  .76519 1.7132 154.6 20.3  585  94
2025 11 11 04  01 40 35.920   +02 34 30.04  .76525 1.7131 154.6 20.3  591  94
2025 11 11 05  01 40 32.632   +02 34 30.19  .76531 1.7129 154.5 20.3  596  94
2025 11 11 06  01 40 29.346   +02 34 30.37  .76538 1.7128 154.5 20.3  602  94
2025 11 11 07  01 40 26.064   +02 34 30.59  .76544 1.7127 154.4 20.3  608  94
2025 11 11 08  01 40 22.785   +02 34 30.83  .76551 1.7126 154.4 20.3  614  94